Location: Eckley Miners' Village
(40.9930°N, 75.8630°W)
Time: 17:45:24
(UTC-05:00)

Tiangong - Visible Passes

Search period start: 29 November 2023 00:00
Search period end: 09 December 2023 00:00
Orbit: 374 x 384 km, 41.5° (Epoch: 29 November)

Date Brightness Start Highest point End Pass type
(mag) Time Alt. Az. Time Alt. Az. Time Alt. Az.
29 Nov -2.2 17:09:11 10° W 17:12:21 85° N 17:15:31 10° E visible
29 Nov -0.2 18:46:00 10° W 18:48:03 29° WSW 18:48:03 29° WSW visible
30 Nov -1.6 17:44:23 10° W 17:47:29 57° SSW 17:49:45 17° ESE visible
01 Dec -0.1 18:19:44 10° W 18:22:22 24° SSW 18:23:40 18° S visible
02 Dec -0.8 17:17:48 10° W 17:20:48 39° SSW 17:23:45 10° SE visible
03 Dec 0.8 17:53:24 10° WSW 17:55:24 16° SSW 17:57:22 10° S visible
